Location: Cossonay
(46.5833°N, 6.4167°E)
Time: 11:06:16
(UTC+00:00)

STARLINK-1257 - Pass Details

Date: 09 October 2020
Orbit: 549 x 550 km, 53.0° (Epoch: 21 October)

Event Time Altitude Azimuth Distance (km) Brightness Sun altitude
Exits shadow 04:19:21 23° 296° (WNW) 1,181 4.8 -15.3°
Maximum altitude 04:21:19 38° 348° (NNW) 856 4.5 -15.0°
Drops below altitude 10° 04:25:12 10° 58° (ENE) 1,826 7.3 -14.3°
Sets 04:27:34 0° 66° (ENE) 2,720 8.7 -13.9°
